sat.trackr.live / text

‹ back to catalog

STARLINK-34921

NORAD 65893 · 2025-224M

PAYLOAD ACTIVE UNKNOWN

§ Identity

Operator
Country
US
Launch date
2025-10-07
Launch site
AFETR
Launch vehicle
Mass (kg)
RCS (m²)

Purposes: comms

External: N2YO · Heavens-Above · Gunter

§ Orbital elements

Epoch: 2026-09-19T11:13:49.504512Z

Period
93.85 min
Inclination
53.1593°
Eccentricity
0.0000690
Mean motion
15.34407189 rev/d
Perigee alt
462.2 km
Apogee alt
463.2 km
Semi-major
6,840.8 km
B*
7.9830e-4
RAAN
190.4833°
Arg perigee
84.4633°
Mean anomaly
275.6448°
Rev number
5,455

§ Raw data

STARLINK-349211 65893U 25224M   26262.46793408  .00026698  00000+0  79830-3 0  99952 65893  53.1593 190.4833 0000690  84.4633 275.6448 15.34407189 54557

JSON: /api/v1/satellites/65893 · /tle

For live sub-satellite position, see the globe view (requires WebGL).

§ Visibility from observer

Set your observer location to see the next 7 days of passes ≥ 10°. The values pass through the URL so the page stays shareable.

No JS? Fill the form by hand. The geolocation button needs JavaScript.